FW0837 Weather Reports


Display with metric or nautical units.
time (UTC)temp
F
wind
direction
speed
MPH
gust
MPH
rain 1hr
in
rain 24hr
in
rain mn
in
humidity
%
barometer
mb
20260903133527 63 154 0.0 0.0 0.00 0.22 0.22 93 1015.1
20260903133027 63 154 0.0 0.0 0.00 0.22 0.22 93 1015.0
20260903132525 63 154 0.0 0.0 0.00 0.22 0.22 93 1014.9
20260903132024 63 154 0.0 2.0 0.00 0.22 0.22 93 1015.1
20260903131524 63 154 0.0 2.0 0.00 0.22 0.22 93 1015.1
20260903131023 63 154 0.0 2.0 0.00 0.22 0.22 93 1015.1
20260903130523 63 154 0.0 2.0 0.00 0.22 0.22 93 1015.1
20260903130023 63 154 0.0 2.0 0.00 0.22 0.22 93 1015.1
20260903125523 63 154 0.0 2.0 0.00 0.22 0.22 93 1015.2
20260903125022 63 154 0.0 2.0 0.00 0.22 0.22 93 1015.3
20260903124523 63 154 0.0 2.0 0.00 0.22 0.22 93 1015.4
20260903124022 63 155 0.0 2.0 0.00 0.22 0.22 93 1015.4
20260903123520 63 156 0.0 2.0 0.00 0.22 0.22 93 1015.4
20260903123021 63 155 0.0 1.0 0.00 0.22 0.22 93 1015.6
20260903122518 62 156 0.0 0.0 0.00 0.22 0.22 93 1015.7
20260903122019 62 155 0.0 0.0 0.00 0.22 0.22 93 1015.8
20260903121526 62 156 0.0 0.0 0.00 0.22 0.22 93 1015.7
20260903121017 62 155 0.0 0.0 0.00 0.22 0.22 93 1015.8
20260903120515 62 155 0.0 0.0 0.00 0.22 0.22 93 1015.8
20260903120015 62 155 0.0 0.0 0.01 0.22 0.22 93 1015.9
20260903115513 62 156 0.0 0.0 0.01 0.22 0.22 92 1016.0
20260903115014 62 156 0.0 0.0 0.03 0.22 0.22 92 1016.1
20260903114513 62 156 0.0 0.0 0.03 0.22 0.22 92 1016.1
20260903114012 62 156 0.0 0.0 0.03 0.22 0.22 92 1016.1
20260903113512 62 156 0.0 0.0 0.04 0.22 0.22 92 1016.2
20260903113024 62 156 0.0 0.0 0.04 0.22 0.22 92 1016.2
20260903112510 62 156 0.0 1.0 0.04 0.22 0.22 92 1016.1
20260903112013 62 156 0.0 1.0 0.05 0.22 0.22 92 1016.1
20260903111514 62 156 0.0 1.0 0.05 0.22 0.22 92 1016.1
20260903111011 62 156 0.0 1.0 0.05 0.22 0.22 92 1016.2
20260903110510 62 154 0.0 1.0 0.05 0.22 0.22 92 1016.2
20260903110010 62 155 0.0 1.0 0.05 0.21 0.21 92 1016.2
20260903105509 61 156 0.0 1.0 0.08 0.21 0.21 92 1016.3
20260903105009 62 156 0.0 1.0 0.08 0.19 0.19 92 1016.3
20260903104508 62 156 0.0 1.0 0.09 0.19 0.19 92 1016.0
20260903104007 61 155 0.0 1.0 0.08 0.18 0.18 92 1016.2
20260903103507 61 155 0.0 1.0 0.09 0.18 0.18 92 1016.1
20260903103007 61 155 0.0 3.0 0.09 0.18 0.18 92 1016.1
20260903102506 61 156 1.0 3.0 0.09 0.18 0.18 92 1016.1
20260903102007 61 158 0.0 0.0 0.08 0.17 0.17 92 1016.1
20260903101506 61 158 0.0 0.0 0.09 0.17 0.17 91 1016.0
20260903101007 62 158 0.0 0.0 0.10 0.17 0.17 91 1016.0
20260903100507 62 158 0.0 0.0 0.09 0.16 0.16 91 1016.1
20260903100005 62 213 0.0 0.0 0.10 0.16 0.16 91 1016.3
20260903095505 62 212 0.0 0.0 0.06 0.12 0.12 91 1016.4
20260903095009 62 213 0.0 0.0 0.05 0.11 0.11 91 1016.2
20260903094505 62 214 0.0 0.0 0.04 0.10 0.10 91 1016.4
20260903094007 62 212 0.0 0.0 0.04 0.10 0.10 91 1016.2
20260903093505 62 213 0.0 1.0 0.03 0.09 0.09 91 1016.3
20260903093009 62 213 0.0 1.0 0.05 0.09 0.09 91 1016.4
20260903092504 62 212 0.0 1.0 0.08 0.09 0.09 91 1016.4
20260903092004 62 212 0.0 1.0 0.08 0.08 0.08 90 1016.4
20260903091515 62 213 0.0 2.0 0.08 0.08 0.08 90 1016.4
20260903091003 62 214 0.0 3.0 0.07 0.07 0.07 90 1016.5
20260903090503 62 213 0.0 3.0 0.07 0.07 0.07 90 1016.6
20260903090002 62 212 0.0 2.0 0.06 0.06 0.06 90 1016.6
20260903085502 62 213 0.0 2.0 0.06 0.06 0.06 90 1016.5
20260903085001 62 212 0.0 2.0 0.06 0.06 0.06 89 1016.5
20260903084502 62 214 0.0 3.0 0.06 0.06 0.06 89 1016.5
20260903084001 63 212 1.0 3.0 0.06 0.06 0.06 89 1016.4
20260903083501 63 191 0.0 4.0 0.06 0.06 0.06 88 1016.5
20260903083101 63 191 0.0 4.0 0.04 0.04 0.04 88 1016.3
20260903082600 63 191 1.0 4.0 0.01 0.01 0.01 88 1016.7
20260903082100 63 190 1.0 4.0 0.00 0.00 0.00 87 1016.5
20260903081558 63 108 1.0 3.0 0.00 0.00 0.00 87 1016.2
20260903081058 63 78 0.0 6.0 0.00 0.00 0.00 88 1016.1
20260903080600 63 79 1.0 6.0 0.00 0.00 0.00 88 1016.2
20260903075558 63 112 1.0 3.0 0.00 0.00 0.00 88 1016.5
20260903075059 63 111 0.0 3.0 0.00 0.00 0.00 89 1016.5
20260903074555 63 111 0.0 3.0 0.00 0.00 0.00 89 1016.7
20260903074054 63 112 1.0 3.0 0.00 0.00 0.00 89 1016.6
20260903073554 63 192 0.0 3.0 0.00 0.00 0.00 89 1016.7
20260903073054 62 60 0.0 4.0 0.00 0.00 0.00 89 1016.8
20260903072556 62 60 1.0 6.0 0.00 0.00 0.00 90 1016.6
20260903072052 62 120 2.0 4.0 0.00 0.00 0.00 90 1016.7
20260903071554 62 30 1.0 4.0 0.00 0.00 0.00 90 1016.7
20260903071051 62 71 2.0 4.0 0.00 0.00 0.00 90 1016.7
20260903070550 62 72 1.0 4.0 0.00 0.00 0.00 91 1016.9
20260903070050 62 71 0.0 3.0 0.00 0.00 0.00 91 1017.0
20260903065552 62 71 0.0 3.0 0.00 0.00 0.00 91 1017.1
20260903065049 62 71 1.0 2.0 0.00 0.00 0.00 91 1017.2
20260903064548 62 71 0.0 3.0 0.00 0.00 0.00 92 1017.5
20260903064046 62 71 1.0 4.0 0.00 0.00 0.00 92 1017.5
20260903063544 62 70 2.0 4.0 0.00 0.00 0.00 92 1017.7
20260903063044 62 106 0.0 3.0 0.00 0.00 0.00 92 1018.0
20260903062542 62 106 0.0 2.0 0.00 0.00 0.00 92 1018.2
20260903062045 63 106 0.0 2.0 0.00 0.00 0.00 92 1018.2
20260903061551 63 106 1.0 3.0 0.00 0.00 0.00 92 1018.4
20260903061040 63 106 1.0 3.0 0.00 0.00 0.00 92 1018.6
20260903060540 63 52 0.0 2.0 0.00 0.00 0.00 92 1018.8
20260903060041 63 52 0.0 1.0 0.00 0.00 0.00 92 1018.8
20260903055540 63 52 0.0 1.0 0.00 0.00 0.00 92 1018.9
20260903055039 63 52 0.0 4.0 0.00 0.00 0.00 92 1018.9
20260903054541 63 52 0.0 4.0 0.00 0.00 0.00 92 1018.9
20260903054039 63 54 1.0 2.0 0.00 0.00 0.00 92 1018.9
20260903053539 63 54 0.0 1.0 0.00 0.00 0.00 92 1018.9
20260903053039 62 54 0.0 2.0 0.00 0.00 0.00 92 1018.8
20260903052538 62 54 0.0 3.0 0.00 0.00 0.00 92 1018.9
20260903052038 62 54 0.0 3.0 0.00 0.00 0.00 92 1018.8
20260903051537 63 54 0.0 1.0 0.00 0.00 0.00 92 1018.7
20260903051036 63 54 0.0 1.0 0.00 0.00 0.00 92 1018.9
20260903050535 63 54 0.0 1.0 0.00 0.00 0.00 92 1019.0
20260903050035 63 54 0.0 2.0 0.00 0.00 0.00 92 1019.0
20260903045535 62 54 0.0 2.0 0.00 0.00 0.00 92 1019.0
20260903045038 63 54 0.0 3.0 0.00 0.00 0.00 92 1019.1
20260903044540 63 54 0.0 3.0 0.00 0.00 0.00 92 1019.0
20260903044037 63 54 1.0 2.0 0.00 0.00 0.00 92 1019.1
20260903043534 63 54 0.0 2.0 0.00 0.00 0.00 92 1019.3
20260903043041 63 54 0.0 3.0 0.00 0.00 0.00 92 1019.1
20260903042532 63 54 1.0 3.0 0.00 0.00 0.00 92 1019.2
20260903042035 63 54 0.0 3.0 0.00 0.00 0.00 92 1019.2
20260903041531 63 54 0.0 2.0 0.00 0.00 0.00 92 1019.2
20260903041030 63 54 1.0 2.0 0.00 0.00 0.00 92 1019.3
20260903040530 63 54 1.0 2.0 0.00 0.00 0.00 92 1019.4
20260903040029 63 54 0.0 2.0 0.00 0.00 0.00 92 1019.5
20260903035530 63 54 0.0 4.0 0.00 0.00 0.00 92 1019.5
20260903035028 63 54 0.0 4.0 0.00 0.00 0.00 92 1019.5
20260903034539 63 54 1.0 3.0 0.00 0.00 0.00 91 1019.5
20260903034028 63 54 0.0 2.0 0.00 0.00 0.00 91 1019.5
20260903033527 63 54 0.0 2.0 0.00 0.00 0.00 91 1019.6
20260903033027 63 54 0.0 2.0 0.00 0.00 0.00 91 1019.9
20260903032530 63 54 0.0 2.0 0.00 0.00 0.00 92 1019.9
20260903032028 63 54 0.0 2.0 0.00 0.00 0.00 91 1020.0
20260903031527 63 54 1.0 2.0 0.00 0.00 0.00 91 1019.7
20260903031026 63 54 0.0 1.0 0.00 0.00 0.00 92 1019.9
20260903030529 63 54 0.0 1.0 0.00 0.00 0.00 92 1019.9
20260903030026 63 54 0.0 1.0 0.00 0.00 0.00 91 1019.9
20260903025528 63 54 0.0 0.0 0.00 0.00 0.00 91 1020.0
20260903025026 63 54 0.0 0.0 0.00 0.00 0.00 92 1020.0
20260903024525 63 54 0.0 1.0 0.00 0.00 0.00 91 1019.9
20260903024025 63 54 0.0 2.0 0.00 0.00 0.00 91 1020.0
20260903023525 63 54 0.0 2.0 0.00 0.00 0.00 91 1020.0
20260903023025 63 54 0.0 2.0 0.00 0.00 0.00 91 1020.1
20260903022525 63 54 0.0 2.0 0.00 0.00 0.00 91 1020.0
20260903022024 63 54 0.0 2.0 0.00 0.00 0.00 91 1020.1
20260903021524 63 54 0.0 2.0 0.00 0.00 0.00 91 1020.3
20260903021024 63 53 0.0 2.0 0.00 0.00 0.00 91 1020.4
20260903020527 63 54 0.0 2.0 0.00 0.00 0.00 91 1020.5
20260903020045 63 54 0.0 1.0 0.00 0.00 0.00 91 1020.5
20260903015527 63 54 0.0 1.0 0.00 0.00 0.00 91 1020.6
20260903015024 63 54 0.0 0.0 0.00 0.00 0.00 91 1020.7
20260903014524 63 55 0.0 1.0 0.00 0.00 0.00 91 1020.8
20260903014024 63 54 0.0 3.0 0.00 0.00 0.00 91 1020.7
20260903013526 63 54 0.0 4.0 0.00 0.00 0.00 91 1020.6
20260903013024 63 54 2.0 5.0 0.00 0.00 0.00 91 1020.2
20260903012522 63 69 2.0 5.0 0.00 0.00 0.00 91 1019.8
20260903012025 63 68 2.0 5.0 0.00 0.00 0.00 91 1020.0
20260903011522 63 72 1.0 4.0 0.00 0.00 0.00 91 1020.3
20260903011021 63 73 1.0 3.0 0.00 0.00 0.00 91 1020.3
20260903010521 63 74 0.0 3.0 0.00 0.00 0.00 91 1020.4
20260903010021 63 73 1.0 4.0 0.00 0.00 0.00 91 1020.3
20260903005521 63 73 0.0 4.0 0.00 0.00 0.00 91 1020.3
20260903005020 63 73 1.0 4.0 0.00 0.00 0.00 90 1020.3
20260903004521 63 75 1.0 8.0 0.00 0.00 0.00 90 1020.3
20260903004024 64 75 1.0 8.0 0.00 0.00 0.00 90 1020.0
20260903003521 64 50 3.0 7.0 0.00 0.00 0.00 90 1020.1
20260903003020 64 78 2.0 6.0 0.00 0.00 0.00 90 1020.3
20260903002520 64 78 2.0 6.0 0.00 0.00 0.00 90 1020.4
20260903002020 64 78 1.0 8.0 0.00 0.00 0.00 90 1020.5
20260903001519 64 81 3.0 8.0 0.00 0.00 0.00 90 1020.3
20260903001019 64 89 2.0 6.0 0.00 0.00 0.00 90 1020.6
20260903000519 64 67 0.0 4.0 0.00 0.00 0.00 90 1020.6
20260903000019 64 69 1.0 4.0 0.00 0.00 0.00 90 1020.7
20260902235519 64 69 0.0 4.0 0.00 0.00 0.00 89 1020.8
20260902235018 64 65 1.0 5.0 0.00 0.00 0.00 89 1020.8
20260902234520 64 64 2.0 5.0 0.00 0.00 0.00 89 1020.8
20260902234019 64 66 2.0 6.0 0.00 0.00 0.00 89 1020.8
20260902233519 64 62 1.0 6.0 0.00 0.00 0.00 89 1020.8
20260902233019 64 60 3.0 9.0 0.00 0.00 0.00 89 1020.9
20260902232519 64 87 3.0 9.0 0.00 0.00 0.00 89 1021.1
20260902232018 65 84 2.0 4.0 0.00 0.00 0.00 88 1021.2
20260902231519 65 85 2.0 3.0 0.00 0.00 0.00 89 1021.3
20260902231018 65 86 1.0 6.0 0.00 0.00 0.00 88 1021.4
20260902230517 65 86 2.0 6.0 0.00 0.00 0.00 88 1021.4
20260902230017 65 83 3.0 6.0 0.00 0.00 0.00 88 1021.2
20260902225518 65 88 1.0 6.0 0.00 0.00 0.00 87 1021.4
20260902225018 65 93 1.0 8.0 0.00 0.00 0.00 87 1021.4
20260902224518 66 66 2.0 6.0 0.00 0.00 0.00 87 1021.3
20260902224017 66 81 2.0 6.0 0.00 0.00 0.00 87 1021.3
20260902223517 66 81 1.0 5.0 0.00 0.00 0.00 86 1021.4
20260902223022 66 62 1.0 4.0 0.00 0.00 0.00 86 1021.6
20260902222517 66 63 1.0 5.0 0.00 0.00 0.00 86 1021.6
20260902222016 66 65 1.0 6.0 0.00 0.00 0.00 86 1021.5
20260902221518 67 67 2.0 5.0 0.00 0.00 0.00 86 1021.3
20260902221016 67 58 2.0 8.0 0.00 0.00 0.00 85 1021.4
20260902220516 67 81 3.0 8.0 0.00 0.00 0.00 84 1021.5
20260902220020 67 74 2.0 7.0 0.00 0.00 0.00 85 1021.6
20260902215517 67 50 1.0 8.0 0.00 0.00 0.00 84 1021.6
20260902215015 67 75 2.0 8.0 0.00 0.00 0.00 84 1021.7
20260902214516 68 93 2.0 6.0 0.00 0.00 0.00 84 1021.6
20260902214016 68 84 2.0 9.0 0.00 0.00 0.00 83 1021.5
20260902213515 68 69 2.0 6.0 0.00 0.00 0.00 83 1021.6
20260902213015 68 77 3.0 10.0 0.00 0.00 0.00 82 1021.6
20260902212516 69 69 4.0 10.0 0.00 0.00 0.00 82 1021.5
20260902212018 69 88 3.0 9.0 0.00 0.00 0.00 82 1021.4
20260902211514 69 84 1.0 10.0 0.00 0.00 0.00 82 1021.2
20260902211018 69 97 2.0 10.0 0.00 0.00 0.00 81 1021.2
20260902210514 69 97 4.0 9.0 0.00 0.00 0.00 81 1021.2
20260902210019 69 96 5.0 9.0 0.00 0.00 0.00 81 1021.4
20260902205518 69 52 3.0 9.0 0.00 0.00 0.00 80 1021.5
20260902205014 69 64 2.0 9.0 0.00 0.00 0.00 80 1021.3
20260902204514 70 66 4.0 9.0 0.00 0.00 0.00 79 1021.4
20260902204014 70 65 2.0 9.0 0.00 0.00 0.00 81 1021.4
20260902203519 70 83 4.0 10.0 0.00 0.00 0.00 79 1021.5
20260902203014 70 88 5.0 10.0 0.00 0.00 0.00 79 1021.6
20260902202513 70 82 4.0 9.0 0.00 0.00 0.00 78 1021.8
20260902202013 71 87 2.0 8.0 0.00 0.00 0.00 80 1021.9
20260902201518 69 90 4.0 10.0 0.00 0.00 0.00 81 1021.9
20260902201012 69 92 3.0 10.0 0.00 0.00 0.00 81 1021.9
20260902200514 69 83 2.0 6.0 0.00 0.00 0.00 81 1022.1
20260902200012 69 86 2.0 10.0 0.00 0.00 0.00 80 1022.3
20260902195511 69 60 3.0 9.0 0.00 0.00 0.00 80 1022.2
20260902195011 70 57 3.0 9.0 0.00 0.00 0.00 80 1022.2
20260902194516 70 77 1.0 5.0 0.00 0.00 0.00 81 1022.2
20260902194011 70 77 2.0 8.0 0.00 0.00 0.00 80 1022.1
20260902193511 70 62 5.0 8.0 0.00 0.00 0.00 80 1022.3
20260902193011 70 141 1.0 6.0 0.00 0.00 0.00 80 1022.4
20260902192511 70 74 3.0 10.0 0.00 0.00 0.00 80 1022.5
20260902192013 69 81 4.0 10.0 0.00 0.00 0.00 80 1022.4
20260902191514 70 85 2.0 7.0 0.00 0.00 0.00 80 1022.6
20260902191010 71 88 2.0 7.0 0.00 0.00 0.00 80 1022.7
20260902190509 70 33 2.0 5.0 0.00 0.00 0.00 81 1022.6
20260902190010 70 77 0.0 10.0 0.00 0.00 0.00 81 1022.5
20260902185510 69 78 6.0 10.0 0.00 0.00 0.00 80 1022.5
20260902185013 69 93 4.0 9.0 0.00 0.00 0.00 79 1022.3
20260902184509 70 87 3.0 10.0 0.00 0.00 0.00 79 1022.2
20260902184008 70 55 3.0 10.0 0.00 0.00 0.00 81 1022.2
20260902183508 70 53 4.0 8.0 0.00 0.00 0.00 79 1022.2
20260902183009 70 89 3.0 7.0 0.00 0.00 0.00 79 1022.2
20260902182507 70 108 3.0 7.0 0.00 0.00 0.00 81 1022.2
20260902182007 70 83 3.0 9.0 0.00 0.00 0.00 81 1022.1
20260902181507 70 73 4.0 11.0 0.00 0.00 0.00 80 1022.2
20260902181009 69 72 3.0 11.0 0.00 0.00 0.00 82 1022.3
20260902180506 70 106 3.0 11.0 0.00 0.00 0.00 82 1022.4
20260902180007 69 54 2.0 6.0 0.00 0.00 0.00 82 1022.5
20260902175505 69 72 3.0 6.0 0.00 0.01 0.00 82 1022.5
20260902175007 69 86 2.0 6.0 0.00 0.01 0.00 82 1022.5
20260902174505 70 115 3.0 8.0 0.00 0.01 0.00 82 1022.5
20260902174004 70 100 2.0 8.0 0.00 0.01 0.00 82 1022.5
20260902173504 70 23 1.0 6.0 0.00 0.01 0.00 82 1022.5
20260902173003 70 79 2.0 8.0 0.00 0.01 0.00 82 1022.6
20260902172503 69 92 1.0 8.0 0.00 0.01 0.00 82 1022.6
20260902172003 69 91 1.0 9.0 0.00 0.01 0.00 81 1022.7
20260902171503 69 82 3.0 9.0 0.00 0.01 0.00 81 1022.6
20260902171002 69 57 3.0 8.0 0.00 0.01 0.00 81 1022.7
20260902170502 69 57 2.0 10.0 0.00 0.01 0.00 82 1022.7
20260902170002 69 86 1.0 6.0 0.00 0.01 0.00 82 1022.6
20260902165503 69 87 2.0 8.0 0.00 0.01 0.00 82 1022.7
20260902165002 69 96 3.0 8.0 0.00 0.01 0.00 82 1022.7
20260902164501 69 60 1.0 8.0 0.00 0.01 0.00 82 1022.5
20260902164001 69 87 2.0 6.0 0.00 0.01 0.00 82 1022.6
20260902163601 69 77 2.0 5.0 0.00 0.01 0.00 83 1022.6
20260902163501 69 77 1.0 5.0 0.00 0.01 0.00 83 1022.6
20260902163101 69 77 1.0 5.0 0.00 0.01 0.00 83 1022.6
20260902162600 69 77 3.0 5.0 0.00 0.01 0.00 82 1022.7
20260902162102 69 82 0.0 7.0 0.00 0.01 0.00 83 1022.7
20260902161559 69 83 1.0 4.0 0.00 0.01 0.00 82 1022.7
20260902161101 69 83 1.0 8.0 0.00 0.01 0.00 82 1022.9
20260902160557 69 83 3.0 8.0 0.00 0.01 0.00 81 1022.9
20260902160116 69 79 2.0 8.0 0.00 0.01 0.00 82 1023.1
20260902155557 69 83 2.0 9.0 0.00 0.01 0.00 81 1023.1
20260902155057 70 58 4.0 9.0 0.00 0.01 0.00 80 1023.0
20260902154559 70 103 2.0 9.0 0.00 0.01 0.00 81 1023.2
20260902154056 70 58 1.0 6.0 0.00 0.01 0.00 80 1023.1
20260902153556 71 27 3.0 9.0 0.00 0.01 0.00 80 1023.1
20260902153057 70 118 1.0 9.0 0.00 0.01 0.00 82 1023.1
20260902152552 70 104 5.0 9.0 0.00 0.01 0.00 82 1023.1
20260902152051 69 78 2.0 6.0 0.00 0.01 0.00 84 1023.1
20260902151555 68 86 2.0 8.0 0.00 0.01 0.00 83 1023.2
20260902151049 68 85 2.0 7.0 0.00 0.01 0.00 84 1023.4
20260902150547 68 65 2.0 8.0 0.00 0.01 0.00 84 1023.3
20260902150046 68 99 1.0 8.0 0.00 0.01 0.00 85 1023.2
20260902145545 68 87 2.0 6.0 0.00 0.03 0.00 85 1023.2
20260902145044 68 74 2.0 7.0 0.00 0.03 0.00 86 1023.2
20260902144544 67 66 1.0 7.0 0.00 0.03 0.00 87 1023.1
20260902144043 67 93 2.0 7.0 0.00 0.03 0.00 87 1023.0
20260902143542 67 41 2.0 7.0 0.00 0.03 0.00 87 1023.0
20260902143044 67 73 2.0 4.0 0.00 0.03 0.00 88 1022.8
20260902142540 67 183 1.0 8.0 0.00 0.03 0.00 89 1022.8
20260902142040 66 49 2.0 9.0 0.00 0.03 0.00 89 1022.7
20260902141537 66 55 2.0 11.0 0.00 0.03 0.00 89 1022.6
20260902141036 66 95 5.0 11.0 0.00 0.03 0.00 90 1022.7
20260902140536 66 93 2.0 6.0 0.00 0.03 0.00 90 1022.8
20260902140038 65 113 3.0 6.0 0.00 0.03 0.00 90 1022.6
20260902135534 65 14 3.0 6.0 0.00 0.18 0.00 91 1022.7
20260902135033 65 70 1.0 11.0 0.00 0.18 0.00 91 1022.5
20260902134538 65 79 2.0 8.0 0.00 0.18 0.00 92 1022.4
20260902134031 65 55 3.0 7.0 0.00 0.18 0.00 92 1022.5